Home > Weather > Las Cruces > Past weeks

Flag for USA Past Weather in Las Cruces, New Mexico, USA — Yesterday and Last 2 Weeks

Now
90 °F

Rain. Broken clouds.


Feels Like: 87 °F
Forecast: 68 / 98 °F
Wind: 7 mph from West

Location: Las Cruces International

Current Time: Jun 24, 2016 at 5:49:16 PM

Latest Report: Jun 24, 2016 at 5:15 PM


Visibility: 10 mi

Pressure: 29.98 "Hg (26.25 "Hg at 1187m altitude)

Humidity: 22%

Dew Point: 47 °F

Location of Las CrucesLocation

Past Weather in Las Cruces — Graph

°F

Las Cruces Temperature Yesterday

Maximum temperature yesterday: 101 °F (at 5:15 PM)
Minimum temperature yesterday: 71 °F (at 6:15 AM)
Average temperature yesterday: 88 °F

High & Low Weather Summary for the Past Weeks

 TemperatureHumidityPressure
High104 °F (Jun 18, 3:35 PM)67% (Jun 12, 6:15 AM)30.29 "Hg (Jun 12, 6:15 AM)
Low57 °F (Jun 14, 6:15 AM)2% (Jun 18, 5:15 PM)29.90 "Hg (Jun 9, 6:15 PM)
Average84 °F20%30.09 "Hg
* Reported Jun 9 4:15 PM — Jun 24 4:35 PM, Las Cruces, Weather by CustomWeather, © 2016

Note: Actual official high and low records may vary slightly from our data, if they occured in-between our weather recording intervals... More about our weather records

Advertising

Las Cruces Weather History for the Previous 24 Hours

Scroll right to see more
 ConditionsComfort  
Time TempWeatherWind HumidityBarometerVisibility
4:35 PM
Fri, Jun 24
96 °FScattered clouds.8 mph14%29.98 "Hg10 mi
4:15 PM96 °FScattered clouds.3 mph14%29.98 "Hg10 mi
3:55 PM98 °FSunny.7 mph13%29.99 "Hg10 mi
3:15 PM100 °FSunny.10 mph13%30.01 "Hg10 mi
2:55 PM99 °FSunny.8 mph13%30.02 "Hg10 mi
2:35 PM98 °FSunny.3 mph13%30.03 "Hg10 mi
2:15 PM96 °FSunny.3 mph14%30.04 "Hg10 mi
1:55 PM96 °FSunny.No wind14%30.05 "Hg10 mi
1:15 PM96 °FSunny.10 mph14%30.08 "Hg10 mi
12:55 PM95 °FSunny.7 mph14%30.09 "Hg10 mi
12:35 PM95 °FSunny.6 mph14%30.10 "Hg10 mi
12:15 PM93 °FSunny.6 mph15%30.11 "Hg10 mi
11:55 AM92 °FSunny.5 mph16%30.11 "Hg10 mi
11:15 AM90 °FSunny.12 mph19%30.12 "Hg10 mi
10:55 AM88 °FSunny.12 mph20%30.14 "Hg10 mi
10:15 AM86 °FSunny.12 mph22%30.14 "Hg10 mi
9:55 AM85 °FSunny.16 mph23%30.14 "Hg10 mi
9:35 AM83 °FSunny.13 mph25%30.15 "Hg10 mi
9:15 AM84 °FSunny.12 mph24%30.14 "Hg10 mi
8:55 AM83 °FSunny.7 mph27%30.15 "Hg10 mi
8:15 AM81 °FSunny.6 mph35%30.16 "Hg10 mi
7:55 AM79 °FSunny.5 mph39%30.16 "Hg10 mi
7:35 AM76 °FSunny.5 mph45%30.16 "Hg10 mi
7:15 AM75 °FSunny.6 mph46%30.15 "Hg10 mi
6:55 AM75 °FClear.5 mph47%30.15 "Hg10 mi
6:35 AM74 °FClear.5 mph49%30.14 "Hg10 mi
6:15 AM73 °FClear.7 mph50%30.14 "Hg10 mi
5:55 AM73 °FClear.5 mph50%30.13 "Hg10 mi
5:15 AM73 °FClear.3 mph47%30.12 "Hg10 mi
4:55 AM73 °FClear.5 mph48%30.12 "Hg10 mi
4:15 AM74 °FClear.3 mph43%30.12 "Hg10 mi
3:55 AM77 °FClear.6 mph37%30.12 "Hg10 mi
3:15 AM74 °FClear.No wind44%30.12 "Hg10 mi
2:55 AM74 °FClear.3 mph39%30.12 "Hg10 mi
2:35 AM75 °FClear.No wind35%30.11 "Hg10 mi
2:15 AM75 °FClear.No wind34%30.12 "Hg10 mi
1:55 AM76 °FClear.3 mph34%30.12 "Hg10 mi
1:15 AM81 °FPassing clouds.No wind30%30.13 "Hg10 mi
12:55 AM82 °FPassing clouds.No wind29%30.12 "Hg10 mi
12:15 AM82 °FClear.7 mph28%30.10 "Hg10 mi
11:55 PM
Thu, Jun 23
82 °FClear.8 mph28%30.10 "Hg10 mi
11:15 PM83 °FClear.9 mph27%30.08 "Hg10 mi
10:55 PM85 °FClear.9 mph26%30.08 "Hg10 mi
10:35 PM86 °FClear.10 mph25%30.08 "Hg10 mi
10:15 PM87 °FPassing clouds.10 mph24%30.08 "Hg10 mi
9:55 PM88 °FPassing clouds.12 mph23%30.08 "Hg10 mi
9:15 PM89 °FOvercast.20 mph20%30.06 "Hg10 mi
8:55 PM90 °FPartly sunny.17 mph19%30.04 "Hg10 mi
8:35 PM91 °FBroken clouds.10 mph18%30.03 "Hg10 mi
8:15 PM90 °FDrizzle. Broken clouds.9 mph21%30.02 "Hg10 mi
7:55 PM89 °FLight rain. Broken clouds.9 mph26%30.02 "Hg10 mi
7:35 PM93 °FSunny.16 mph17%30.01 "Hg10 mi
7:15 PM94 °FSunny.18 mph17%30.00 "Hg10 mi
6:55 PM98 °FSunny.12 mph13%30.00 "Hg10 mi
6:35 PM99 °FSunny.9 mph12%29.99 "Hg10 mi
6:15 PM99 °FSunny.3 mph12%29.99 "Hg10 mi
5:55 PM100 °FSunny.6 mph11%29.99 "Hg10 mi
5:35 PM100 °FSunny.8 mph12%29.99 "Hg10 mi
5:15 PM101 °FScattered clouds.10 mph11%30.00 "Hg10 mi
Weather by CustomWeather, © 2016

See weather overviewHow to use our weather pages